{"data":{"norad_id":87706,"epoch":"2026-09-17T09:29:44.078784Z","epoch_age_seconds":286378,"freshness":"STALE","line1":"1 87706U          26260.39564906  .00002253  00000+0  38689-3 0  9994","line2":"2 87706  98.6647 104.3603 0102604 121.8568 359.6698 14.66370611619334","mean_motion":14.66370611,"eccentricity":0.0102604,"inclination_deg":98.6647,"raan_deg":104.3603,"arg_perigee_deg":121.8568,"mean_anomaly_deg":359.6698,"bstar":0.00038689,"rev_number":61933,"period_min":98.201640785612,"perigee_km":600.33418657189,"apogee_km":745.02255867038,"semimajor_km":7050.8153726211,"source":"CELESTRAK","updated_at":"2026-09-20T09:00:32.478636Z"}}